Flag for U.S.A. Weather past 2 weeks in Idaho Falls, Idaho, U.S.A.

Now
54 °F

Thundershowers. Passing clouds.


Feels Like: 53 °F
Forecast: 52 / 86 °F
Wind: 6 mph from Northeast

Location: Fanning Field

Current Time: Sep 17, 2014 at 5:36:36 AM

Latest Report: Sep 17, 2014 at 4:53 AM


Visibility: 10 mi

Pressure: 29.86 "Hg

Humidity: 74%

Dew point: 46 °F

Location of Idaho FallsLocation

Historic Weather in Idaho Falls — Graph

°F

Idaho Falls temperature yesterday

Maximum temperature yesterday: 86 °F (at 3:53 PM)
Minimum temperature yesterday: 49 °F (at 3:53 AM)
Average temperature yesterday: 66 °F

Past Weeks' High & Low Weather Summary

 TemperatureHumidityPressure
High86 °F (Sep 7, 4:53 PM)90% (Sep 9, 7:53 AM)30.39 "Hg (Sep 9, 7:53 AM)
Low25 °F (Sep 12, 6:53 AM)9% (Sep 5, 3:53 PM)29.65 "Hg (Sep 3, 2:53 AM)
Average59 °F47%30.00 "Hg
* Reported Sep 2 4:53 AM — Sep 17 4:00 AM, Idaho Falls, Weather by CustomWeather, © 2014

Note: Actual official high and low records may vary slightly from our data, if they occured in-between our weather recording intervals... More about our weather records

Advertising

Idaho Falls weather history for previous 24 hours

 ConditionsComfort  
Time TempWeatherWind HumidityBarometerVisibility
4:00 AM
Sep 17
54 °FPassing clouds.5 mph72%30.00 "Hg10 mi
2:53 AM55 °FClear.5 mph69%29.88 "Hg10 mi
1:53 AM52 °FClear.3 mph77%29.90 "Hg10 mi
12:53 AM56 °FClear.3 mph65%29.89 "Hg10 mi
11:53 PM
Sep 16
56 °FClear.5 mph70%29.90 "Hg10 mi
10:53 PM67 °FClear.No wind45%29.88 "Hg10 mi
9:53 PM71 °FClear.5 mph38%29.89 "Hg10 mi
8:53 PM65 °FSunny.No wind52%29.91 "Hg10 mi
7:53 PM77 °FSunny.3 mph29%29.88 "Hg10 mi
6:53 PM84 °FSunny.3 mph22%29.86 "Hg10 mi
5:53 PM86 °FSunny.No wind17%29.88 "Hg10 mi
4:53 PM85 °FSunny.5 mph17%29.90 "Hg10 mi
3:53 PM86 °FScattered clouds.6 mph16%29.92 "Hg10 mi
2:53 PM82 °FScattered clouds.5 mph17%29.97 "Hg10 mi
1:53 PM79 °FScattered clouds.5 mph24%29.99 "Hg10 mi
12:53 PM76 °FScattered clouds.7 mph26%30.01 "Hg10 mi
11:53 AM72 °FPartly sunny.No wind30%30.04 "Hg10 mi
10:53 AM71 °FPartly sunny.5 mph31%30.05 "Hg10 mi
9:53 AM61 °FBroken clouds.3 mph50%30.05 "Hg10 mi
8:53 AM55 °FPassing clouds.8 mph62%30.07 "Hg10 mi
7:53 AM51 °FPassing clouds.No wind66%30.04 "Hg10 mi
6:53 AM52 °FClear.7 mph61%30.02 "Hg10 mi
5:53 AM49 °FClear.8 mph71%30.02 "Hg10 mi
Weather by CustomWeather, © 2014

See weather overviewHow to use our weather pages